Terminal Aerodrome Forecast
Issued by NWS Wilmington, OH

Current Version | Previous Version | Graphics & Text | Print | Product List | Glossary On
Versions: 1 2 3 4 5 6 7 8 9 10 11 12 13 14 15 16 17 18 19 20 21 22 23 24 25 26
000
FTUS41 KILN 221500 AAB
TAFCVG
TAF AMD
KCVG 221503Z 2215/2318 01008KT P6SM BKN035
      TEMPO 2215/2217 BKN028
     FM221800 35008KT P6SM SCT035
     FM230000 01004KT P6SM SKC
     FM231500 29004KT P6SM SCT250=

USA.gov is the U.S. government's official web portal to all federal, state and local government web resources and services.